�������l�o���
Date,Time,MP-1(��Sv/h),MP-2(��Sv/h),MP-3(��Sv/h),MP-4(��Sv/h),MP-5(��Sv/h),MP-6(��Sv/h),MP-7(��Sv/h),MP-8(��Sv/h),����,����(m/s),���J
2021/03/18,00:00,0.637,0.938,0.592,1.178,0.823,0.373,0.660,0.619,�k��,4.7,��
2021/03/18,00:10,0.640,0.940,0.592,1.177,0.822,0.373,0.660,0.618,�k��,4.4,��
2021/03/18,00:20,0.638,0.939,0.593,1.178,0.824,0.373,0.659,0.618,�k��,4.9,��
2021/03/18,00:30,0.637,0.937,0.593,1.174,0.823,0.373,0.658,0.617,�k�k��,4.1,��
2021/03/18,00:40,0.637,0.939,0.593,1.176,0.824,0.374,0.659,0.618,�k�k��,3.7,��
2021/03/18,00:50,0.638,0.939,0.593,1.176,0.822,0.374,0.658,0.619,�k�k��,2.3,��
2021/03/18,01:00,0.637,0.941,0.592,1.177,0.821,0.373,0.659,0.617,�k�k��,2.3,��
2021/03/18,01:10,0.638,0.938,0.593,1.175,0.825,0.373,0.658,0.619,�k��,2.5,��
2021/03/18,01:20,0.636,0.939,0.591,1.177,0.822,0.373,0.657,0.617,�k��,3.2,��
2021/03/18,01:30,0.638,0.938,0.594,1.179,0.822,0.373,0.657,0.618,�k��,3.9,��
2021/03/18,01:40,0.639,0.937,0.593,1.177,0.819,0.372,0.658,0.619,�k��,2.9,��
2021/03/18,01:50,0.639,0.937,0.593,1.178,0.820,0.374,0.658,0.616,���k��,2.9,��
2021/03/18,02:00,0.639,0.938,0.593,1.176,0.822,0.373,0.659,0.619,��,3.5,��
2021/03/18,02:10,0.639,0.937,0.591,1.179,0.823,0.373,0.659,0.618,���쐼,3.0,��
2021/03/18,02:20,0.638,0.940,0.592,1.175,0.824,0.373,0.657,0.617,��,3.8,��
2021/03/18,02:30,0.638,0.937,0.591,1.177,0.822,0.372,0.659,0.620,��,3.9,��
2021/03/18,02:40,0.638,0.936,0.592,1.179,0.821,0.372,0.658,0.618,���k��,4.1,��
2021/03/18,02:50,0.638,0.936,0.592,1.176,0.823,0.372,0.657,0.618,��,3.9,��
2021/03/18,03:00,0.639,0.939,0.593,1.177,0.822,0.374,0.660,0.617,���k��,3.9,��
2021/03/18,03:10,0.638,0.938,0.594,1.177,0.823,0.373,0.656,0.617,���k��,3.3,��
2021/03/18,03:20,0.638,0.939,0.592,1.178,0.822,0.372,0.656,0.618,���k��,3.2,��
2021/03/18,03:30,0.638,0.939,0.593,1.174,0.821,0.374,0.657,0.618,���k��,2.0,��
2021/03/18,03:40,0.636,0.937,0.591,1.178,0.823,0.373,0.657,0.617,���쐼,1.4,��
2021/03/18,03:50,0.639,0.937,0.593,1.177,0.823,0.372,0.656,0.617,���k��,1.1,��
2021/03/18,04:00,0.639,0.937,0.592,1.175,0.822,0.371,0.657,0.618,��,1.2,��
2021/03/18,04:10,0.638,0.936,0.593,1.177,0.821,0.372,0.658,0.618,��,1.5,��
2021/03/18,04:20,0.637,0.937,0.592,1.177,0.821,0.373,0.657,0.617,��,1.5,��
2021/03/18,04:30,0.639,0.939,0.592,1.176,0.822,0.372,0.657,0.618,��,1.7,��
2021/03/18,04:40,0.638,0.937,0.592,1.174,0.821,0.373,0.656,0.618,���k��,2.2,��
2021/03/18,04:50,0.639,0.937,0.591,1.177,0.822,0.373,0.658,0.619,���k��,1.9,��
2021/03/18,05:00,0.639,0.937,0.592,1.176,0.820,0.373,0.657,0.618,��,2.2,��
2021/03/18,05:10,0.636,0.938,0.592,1.177,0.822,0.372,0.658,0.619,���k��,2.3,��
2021/03/18,05:20,0.638,0.938,0.592,1.176,0.821,0.371,0.658,0.617,���k��,2.9,��
2021/03/18,05:30,0.637,0.938,0.592,1.175,0.821,0.373,0.658,0.618,��,3.2,��
2021/03/18,05:40,0.637,0.937,0.592,1.179,0.822,0.374,0.657,0.619,��,3.1,��
2021/03/18,05:50,0.638,0.936,0.592,1.178,0.822,0.371,0.657,0.617,��,3.3,��
2021/03/18,06:00,0.639,0.938,0.591,1.176,0.821,0.373,0.656,0.618,��,4.6,��
2021/03/18,06:10,0.640,0.937,0.592,1.175,0.822,0.373,0.656,0.619,��,4.5,��
2021/03/18,06:20,0.638,0.937,0.593,1.177,0.821,0.372,0.657,0.618,��,3.9,��
2021/03/18,06:30,0.640,0.937,0.594,1.174,0.822,0.373,0.657,0.618,���쐼,3.9,��
2021/03/18,06:40,0.638,0.936,0.591,1.175,0.824,0.372,0.658,0.619,���쐼,4.2,��
2021/03/18,06:50,0.637,0.937,0.592,1.176,0.820,0.373,0.657,0.618,���쐼,5.4,��
2021/03/18,07:00,0.638,0.939,0.592,1.176,0.820,0.373,0.657,0.618,���쐼,6.2,��
2021/03/18,07:10,0.639,0.937,0.591,1.177,0.821,0.373,0.657,0.618,���쐼,6.8,��
2021/03/18,07:20,0.638,0.938,0.592,1.176,0.822,0.373,0.657,0.619,��,7.0,��
2021/03/18,07:30,0.641,0.936,0.593,1.177,0.821,0.373,0.657,0.619,��,7.3,��
2021/03/18,07:40,0.640,0.938,0.592,1.175,0.821,0.373,0.660,0.617,��,6.2,��
2021/03/18,07:50,0.638,0.937,0.592,1.177,0.822,0.373,0.661,0.619,��,5.8,��
2021/03/18,08:00,0.639,0.939,0.592,1.176,0.822,0.374,0.659,0.618,���k��,6.3,��
2021/03/18,08:10,0.639,0.938,0.592,1.178,0.822,0.373,0.660,0.618,���k��,5.2,��
2021/03/18,08:20,0.640,0.938,0.593,1.178,0.821,0.374,0.660,0.618,���k��,6.1,��
2021/03/18,08:30,0.642,0.939,0.592,1.179,0.821,0.372,0.660,0.619,��,5.5,��
2021/03/18,08:40,0.641,0.940,0.593,1.175,0.823,0.373,0.660,0.617,��,5.6,��
2021/03/18,08:50,0.642,0.941,0.593,1.179,0.822,0.374,0.658,0.619,���k��,9.2,��
2021/03/18,09:00,0.640,0.936,0.594,1.178,0.823,0.374,0.658,0.619,���k��,10.0,��
2021/03/18,09:10,0.642,0.939,0.594,1.180,0.824,0.373,0.659,0.618,��,10.5,��
2021/03/18,09:20,0.641,0.936,0.595,1.179,0.823,0.374,0.659,0.618,���k��,10.7,��
2021/03/18,09:30,0.642,0.938,0.593,1.178,0.823,0.374,0.659,0.618,��,9.7,��
2021/03/18,09:40,0.641,0.937,0.595,1.179,0.822,0.374,0.658,0.618,��,9.0,��
2021/03/18,09:50,0.642,0.937,0.595,1.178,0.825,0.373,0.658,0.619,��,9.3,��
2021/03/18,10:00,0.641,0.937,0.594,1.179,0.823,0.374,0.659,0.617,��,10.5,��
2021/03/18,10:10,0.640,0.939,0.593,1.179,0.823,0.373,0.659,0.616,��,9.4,��
2021/03/18,10:20,0.641,0.939,0.594,1.180,0.823,0.375,0.661,0.616,��,10.0,��
2021/03/18,10:30,0.643,0.939,0.594,1.180,0.821,0.374,0.659,0.618,��,9.1,��
2021/03/18,10:40,0.639,0.939,0.594,1.179,0.825,0.374,0.658,0.617,���쐼,7.9,��
2021/03/18,10:50,0.641,0.939,0.595,1.179,0.823,0.374,0.659,0.617,��,8.5,��
2021/03/18,11:00,0.642,0.937,0.594,1.181,0.825,0.374,0.660,0.617,��,10.8,��
2021/03/18,11:10,0.640,0.939,0.595,1.183,0.822,0.373,0.659,0.617,��,10.5,��
2021/03/18,11:20,0.641,0.938,0.593,1.181,0.825,0.373,0.660,0.617,���k��,7.4,��
2021/03/18,11:30,0.641,0.941,0.594,1.182,0.825,0.373,0.659,0.618,���k��,6.8,��
2021/03/18,11:40,0.643,0.943,0.594,1.182,0.825,0.373,0.660,0.617,���k��,6.5,��
2021/03/18,11:50,0.641,0.941,0.595,1.181,0.826,0.373,0.658,0.616,��,8.0,��
2021/03/18,12:00,0.640,0.941,0.595,1.181,0.824,0.372,0.660,0.618,��,5.2,��
2021/03/18,12:10,0.641,0.941,0.595,1.181,0.825,0.373,0.659,0.618,���k��,9.1,��
2021/03/18,12:20,0.643,0.943,0.596,1.180,0.822,0.374,0.661,0.619,��,8.0,��
2021/03/18,12:30,0.644,0.940,0.595,1.183,0.825,0.374,0.660,0.617,��,7.1,��
2021/03/18,12:40,0.641,0.943,0.595,1.182,0.824,0.374,0.660,0.616,��,6.5,��
2021/03/18,12:50,0.643,0.944,0.594,1.182,0.824,0.375,0.661,0.619,���k��,7.6,��
2021/03/18,13:00,0.643,0.942,0.594,1.181,0.826,0.377,0.660,0.617,��,6.1,��
2021/03/18,13:10,0.642,0.942,0.595,1.181,0.826,0.375,0.661,0.617,��,7.7,��
2021/03/18,13:20,0.643,0.943,0.595,1.185,0.825,0.375,0.662,0.617,��,8.6,��
2021/03/18,13:30,0.642,0.943,0.594,1.185,0.827,0.376,0.662,0.619,��,8.7,��
2021/03/18,13:40,0.641,0.943,0.597,1.182,0.826,0.373,0.660,0.617,���k��,6.1,��
2021/03/18,13:50,0.642,0.943,0.596,1.182,0.827,0.374,0.659,0.617,��,6.2,��
2021/03/18,14:00,0.643,0.942,0.595,1.181,0.825,0.374,0.660,0.618,���k��,7.1,��
2021/03/18,14:10,0.643,0.943,0.594,1.183,0.828,0.375,0.660,0.618,�k��,6.0,��
2021/03/18,14:20,0.643,0.944,0.595,1.183,0.826,0.376,0.660,0.618,��,3.9,��
2021/03/18,14:30,0.642,0.942,0.595,1.185,0.826,0.375,0.660,0.618,��,4.4,��
2021/03/18,14:40,0.647,0.941,0.593,1.183,0.825,0.374,0.663,0.617,��,4.7,��
2021/03/18,14:50,0.643,0.941,0.595,1.187,0.826,0.374,0.660,0.618,�쐼,4.8,��
2021/03/18,15:00,0.642,0.945,0.595,1.182,0.827,0.375,0.662,0.617,���쐼,4.3,��
2021/03/18,15:10,0.642,0.943,0.594,1.185,0.828,0.374,0.661,0.617,��,5.7,��
2021/03/18,15:20,0.642,0.944,0.596,1.183,0.826,0.375,0.660,0.617,��,5.5,��
2021/03/18,15:30,0.643,0.942,0.595,1.185,0.827,0.374,0.661,0.617,���쐼,5.8,��
2021/03/18,15:40,0.643,0.945,0.594,1.182,0.825,0.374,0.661,0.618,���쐼,5.2,��
2021/03/18,15:50,0.642,0.947,0.596,1.183,0.827,0.375,0.659,0.617,��,5.9,��
2021/03/18,16:00,0.642,0.945,0.595,1.183,0.826,0.376,0.660,0.617,��,3.4,��
2021/03/18,16:10,0.641,0.946,0.597,1.182,0.828,0.375,0.660,0.617,��,4.1,��
2021/03/18,16:20,0.641,0.944,0.594,1.185,0.827,0.375,0.661,0.617,��,2.8,��
2021/03/18,16:30,0.641,0.946,0.595,1.184,0.827,0.376,0.658,0.619,�k��,2.6,��
2021/03/18,16:40,0.641,0.944,0.595,1.185,0.827,0.374,0.657,0.619,�k��,3.6,��
2021/03/18,16:50,0.642,0.947,0.593,1.185,0.825,0.375,0.659,0.620,�k��,4.8,��
2021/03/18,17:00,0.642,0.945,0.595,1.185,0.825,0.376,0.659,0.619,�k��,4.4,��
2021/03/18,17:10,0.643,0.947,0.594,1.184,0.824,0.374,0.660,0.619,�k��,4.3,��
2021/03/18,17:20,0.643,0.946,0.596,1.185,0.825,0.375,0.658,0.621,�k��,4.5,��
2021/03/18,17:30,0.643,0.948,0.596,1.182,0.827,0.374,0.659,0.620,�k��,3.7,��
2021/03/18,17:40,0.644,0.949,0.595,1.184,0.825,0.374,0.661,0.621,�k��,2.6,��
2021/03/18,17:50,0.642,0.946,0.596,1.184,0.827,0.374,0.661,0.620,�k��,3.9,��
2021/03/18,18:00,0.642,0.946,0.597,1.184,0.829,0.374,0.661,0.619,�k�k��,3.5,��
2021/03/18,18:10,0.643,0.946,0.596,1.183,0.827,0.374,0.661,0.620,���쓌,0.9,��
2021/03/18,18:20,0.643,0.944,0.596,1.183,0.830,0.376,0.661,0.619,�쓌,2.6,��
2021/03/18,18:30,0.642,0.947,0.596,1.184,0.830,0.376,0.662,0.619,�쓌,3.5,��
2021/03/18,18:40,0.643,0.944,0.597,1.185,0.829,0.376,0.660,0.621,�쓌,3.4,��
2021/03/18,18:50,0.645,0.945,0.595,1.181,0.829,0.376,0.662,0.618,��쓌,3.8,��
2021/03/18,19:00,0.642,0.947,0.597,1.181,0.828,0.374,0.661,0.621,��쓌,3.3,��
2021/03/18,19:10,0.641,0.944,0.596,1.181,0.829,0.374,0.661,0.619,��쓌,2.8,��
2021/03/18,19:20,0.642,0.945,0.598,1.183,0.828,0.374,0.660,0.619,��쓌,3.4,��
2021/03/18,19:30,0.641,0.947,0.596,1.180,0.828,0.374,0.660,0.619,��,4.6,��
2021/03/18,19:40,0.641,0.946,0.595,1.182,0.829,0.374,0.661,0.619,��,2.6,��
2021/03/18,19:50,0.642,0.947,0.595,1.182,0.829,0.373,0.661,0.620,��,2.5,��
2021/03/18,20:00,0.641,0.945,0.594,1.184,0.828,0.371,0.661,0.619,��쓌,2.8,��
2021/03/18,20:10,0.642,0.946,0.593,1.183,0.828,0.374,0.660,0.619,���쓌,1.7,��
2021/03/18,20:20,0.641,0.947,0.596,1.183,0.827,0.374,0.660,0.620,-,CALM,��
2021/03/18,20:30,0.640,0.945,0.595,1.184,0.827,0.374,0.661,0.618,���k��,1.7,��
2021/03/18,20:40,0.642,0.945,0.595,1.181,0.829,0.374,0.659,0.619,�k�k��,0.6,��
2021/03/18,20:50,0.641,0.944,0.596,1.182,0.829,0.374,0.659,0.620,�k��,0.6,��
2021/03/18,21:00,0.642,0.944,0.595,1.182,0.826,0.374,0.661,0.617,��,1.9,��
2021/03/18,21:10,0.642,0.944,0.594,1.181,0.828,0.373,0.661,0.619,���k��,2.0,��
2021/03/18,21:20,0.641,0.945,0.596,1.181,0.827,0.373,0.659,0.619,�쐼,0.6,��
2021/03/18,21:30,0.642,0.946,0.595,1.180,0.828,0.375,0.660,0.620,��,0.9,��
2021/03/18,21:40,0.640,0.945,0.595,1.182,0.828,0.374,0.660,0.619,��,1.7,��
2021/03/18,21:50,0.641,0.945,0.594,1.181,0.829,0.374,0.661,0.618,�쐼,1.9,��
2021/03/18,22:00,0.643,0.945,0.594,1.183,0.827,0.374,0.660,0.620,�쐼,1.5,��
2021/03/18,22:10,0.641,0.945,0.595,1.180,0.827,0.374,0.659,0.618,���쐼,0.9,��
2021/03/18,22:20,0.640,0.945,0.595,1.181,0.829,0.375,0.661,0.619,�쐼,0.6,��
2021/03/18,22:30,0.641,0.944,0.595,1.184,0.830,0.374,0.660,0.619,���k��,2.3,��
2021/03/18,22:40,0.641,0.946,0.594,1.183,0.826,0.375,0.661,0.620,���k��,3.5,��
2021/03/18,22:50,0.640,0.945,0.595,1.179,0.826,0.374,0.661,0.619,��,1.5,��
2021/03/18,23:00,0.641,0.943,0.597,1.180,0.828,0.373,0.659,0.619,�k��,2.9,��
2021/03/18,23:10,0.641,0.942,0.595,1.181,0.827,0.374,0.659,0.618,�k��,5.0,��
2021/03/18,23:20,0.642,0.944,0.595,1.182,0.827,0.375,0.660,0.618,�k��,4.9,��
2021/03/18,23:30,0.640,0.943,0.594,1.179,0.828,0.373,0.659,0.620,�k��,3.4,��
2021/03/18,23:40,0.642,0.945,0.594,1.182,0.828,0.373,0.660,0.620,�k��,2.9,��
2021/03/18,23:50,0.641,0.945,0.593,1.184,0.829,0.374,0.659,0.618,�k��,1.7,��
